Enontekio current weather conditions

sailwx.info

Wind from 290 at 8 knots

Air temperature -7.0° C
Visibility: greater than 5.4 NM
Dewpoint -11.0° C
Present weather: Light snow showers.

Last reported at 2020-Jan-22 11:50 UTC.
Time now 2020-Jan-22 13:29 UTC

Location: N 68°22' E 023°26'.
View on Google Maps.

See reports from other nearby stations

  
Tides and Currents Weather Stations Pressure Air Temp Water Temp Dewpoint Dewpoint Depression Visibility Wind Speed Wind Dir Waves Ship Positions
date/time (UTC)wind fromknots sea level pressurealtimeterstation pressurevisibilityair tempwater tempwave heightnotes
2020-Jan-22 12:50 310 12 5.4-7.0 Light snow.
2020-Jan-22 12:20 300 7 5.4-8.0
2020-Jan-22 11:50 290 8 5.4-7.0 Light snow showers.
2020-Jan-22 11:20 290 13 5.4-7.0
2020-Jan-22 10:50 300 12 5.4-7.0
2020-Jan-22 10:20 310 12 5.4-7.0
2020-Jan-22 09:50 320 13 5.4-7.0
2020-Jan-22 09:20 320 13 5.4-7.0
2020-Jan-22 08:50 320 12 5.4-7.0
2020-Jan-22 08:20 290 8 5.4-8.0
2020-Jan-22 07:50 330 6 5.4-7.0
2020-Jan-22 07:20 330 5 5.4-6.0
2020-Jan-22 06:50 5.4-6.0
2020-Jan-22 06:20 290 2 5.4-6.0
2020-Jan-22 05:50 290 6 5.4-6.0 Light snow.
2020-Jan-22 05:20 300 8 1.8-6.0 Light snow.
2020-Jan-22 04:50 290 6 5.4-7.0
2020-Jan-22 04:20 310 4 5.4-7.0
2020-Jan-22 03:50 300 5 5.4-6.0 Light snow showers.
2020-Jan-22 03:20 330 5 5.4-5.0 Light snow showers.
2020-Jan-22 02:50 350 8 5.4-4.0 Light snow showers.
2020-Jan-22 02:20 010 9 5.4-4.0
2020-Jan-22 01:50 010 13 5.4-4.0 Light snow.
2020-Jan-22 01:20 350 12 5.4-4.0
2020-Jan-22 00:50 350 11 5.4-3.0
2020-Jan-22 00:20 350 12 5.4-3.0 Light snow showers.
2020-Jan-21 23:50 360 13 5.4-3.0 Light snow showers.
2020-Jan-21 23:20 330 9 5.4-4.0
2020-Jan-21 22:50 5.4-5.0 Light snow showers.
2020-Jan-21 22:20 290 6 5.4-5.0
2020-Jan-21 21:50 280 11 5.4-5.0
2020-Jan-21 21:20 270 11 5.4-5.0
2020-Jan-21 20:50 280 9 5.4-5.0
2020-Jan-21 20:20 270 9 5.4-6.0
2020-Jan-21 19:50 280 11 5.4-6.0
2020-Jan-21 19:20 280 11 5.4-6.0
2020-Jan-21 18:50 290 11 5.4-7.0
2020-Jan-21 18:20 280 7 5.4-7.0
2020-Jan-21 17:50 260 7 5.4-8.0
2020-Jan-21 17:20 260 11 5.4-7.0
2020-Jan-21 16:50 260 8 5.4-7.0
2020-Jan-21 16:20 260 11 5.4-7.0
2020-Jan-21 15:50 260 8 5.4-6.0
2020-Jan-21 15:20 260 9 5.4-6.0
2020-Jan-21 14:50 240 9 5.4-8.0
2020-Jan-21 14:20 220 6 5.4-7.0
2020-Jan-21 13:50 230 11 5.4-7.0
2020-Jan-21 13:20 220 11 5.4-6.0
2020-Jan-21 12:50 210 7 5.4-6.0
2020-Jan-21 12:20 200 5 5.4-5.0
2020-Jan-21 11:50 230 6 5.4-6.0
2020-Jan-21 11:20 260 11 5.4-4.0 Light snow showers.
2020-Jan-21 10:50 270 12 5.4-4.0
2020-Jan-21 10:20 270 12 5.4-4.0 Light snow showers.
2020-Jan-21 09:50 250 12 5.4-5.0 Light snow showers.
2020-Jan-21 09:20 270 11 5.4-4.0
2020-Jan-21 08:50 270 13 5.4-4.0
2020-Jan-21 08:20 270 15 5.4-3.0
2020-Jan-21 07:50 270 13 5.4-3.0
2020-Jan-21 07:20 270 9 5.4-2.0
2020-Jan-21 06:50 260 13 5.4-2.0
2020-Jan-21 06:20 250 13 5.4-3.0
2020-Jan-21 05:50 240 11 5.4-3.0
2020-Jan-21 05:20 240 7 5.4-4.0
2020-Jan-21 04:50 220 6 5.4-5.0
2020-Jan-21 04:20 230 4 5.4-7.0
2020-Jan-21 03:50 220 6 5.4-5.0
2020-Jan-21 03:20 220 4 5.4-5.0
2020-Jan-21 02:50 210 6 5.4-5.0
2020-Jan-21 02:20 250 8 5.4-5.0
2020-Jan-21 01:50 3.8-4.0
2020-Jan-21 01:20 270 5 5.4-3.0
2020-Jan-21 00:50 280 6 5.4-2.0
2020-Jan-21 00:20 290 7 5.4-2.0
2020-Jan-20 23:50 290 7 5.4-1.0
2020-Jan-20 23:20 290 11 5.4-1.0
2020-Jan-20 22:50 300 12 5.4-1.0
2020-Jan-20 22:20 280 8 5.4-1.0
2020-Jan-20 21:50 250 8 5.4-2.0
2020-Jan-20 21:20 220 6 5.4-3.0
2020-Jan-20 20:50 200 4 5.4-3.0
2020-Jan-20 20:20 200 2 5.4-3.0 Light snow.
2020-Jan-20 19:50 190 5 4.9-2.0 Light snow.
2020-Jan-20 19:20 170 6 4.9-2.0 Light snow showers.
2020-Jan-20 18:50 170 6 5.4-2.0 Light snow showers.
2020-Jan-20 18:20 180 4 5.4-2.0 Light snow showers.
2020-Jan-20 17:50 190 6 5.4-2.0
2020-Jan-20 17:20 190 6 5.4-3.0
2020-Jan-20 16:50 180 5 5.4-3.0
2020-Jan-20 16:20 190 8 5.4-3.0
2020-Jan-20 15:50 180 5 5.4-3.0
2020-Jan-20 15:20 190 4 5.4-3.0
2020-Jan-20 14:50 180 6 5.4-4.0
2020-Jan-20 14:20 180 6 5.4-4.0
2020-Jan-20 13:50 200 6 5.4-5.0
2020-Jan-20 13:20 190 7 5.4-5.0